Wink, TX

8:21 PM CDT on May 23, 2017 (GMT -0500)
Winkler County

Weather History for KINK - October, 2014

Change the Weather History Date:

Friday, October 24, 2014

  Actual Average Record
Temperature  
Mean Temperature 70 °F -  
Max Temperature 84 °F 75 °F 93 °F (2003)
Min Temperature 57 °F 46 °F 33 °F (1938)
Cooling Degree Days 6    
Growing Degree Days 20 (Base 50)    
Moisture  
Dew Point 51 °F    
Average Humidity 41    
Maximum Humidity 63    
Minimum Humidity 26    
Precipitation  
Precipitation 0.00 in - - ()
Sea Level Pressure  
Sea Level Pressure 30.06 in    
Wind  
Wind Speed 6 mph (SE)    
Max Wind Speed 12 mph    
Max Gust Speed -    
Visibility 10 miles    
Events      
Averages and records for this station are not official NWS values.
T = Trace of Precipitation, MM = Missing Value Source: NWS Daily Summary

Daily Weather History Graph

Daily Weather History Graph

Search for Another Location

Airport or City:

Trip Planner

Search our weather history database for the weather conditions in past years. The results will help you decide how hot, cold, wet, or windy it might be!

Date:

Astronomy

Oct. 24, 2014 Rise Set
Actual Time 8:02 AM CDT 7:10 PM CDT
Civil Twilight 7:37 AM CDT 7:35 PM CDT
Nautical Twilight 7:09 AM CDT 8:04 PM CDT
Astronomical Twilight 6:41 AM CDT 8:32 PM CDT
Moon 8:42 AM CDT 7:55 PM CDT
Length of Visible Light 11h 57m
Length of Day
11h 07m
New Moon, 1% of the Moon is Illuminated
Oct 24
New Moon
Oct 30
First Quarter
Nov 6
Full
Nov 14
Last Quarter
Nov 22
New

Hourly Weather History & Observations

Time (CDT) Temp. Heat Index Dew Point Humidity Pressure Visibility Wind Dir Wind Speed Gust Speed Precip Events Conditions
12:53 AM 63.0 °F - - N/A% 30.03 in 10.0 mi SE 6.9 mph - N/A   Clear
1:53 AM 63.0 °F - - N/A% 30.03 in 10.0 mi ESE 5.8 mph - N/A   Clear
2:53 AM 62.1 °F - - N/A% 30.02 in 10.0 mi SE 8.1 mph - N/A   Clear
3:53 AM 61.0 °F - - N/A% 30.02 in 10.0 mi ESE 6.9 mph - N/A   Clear
4:53 AM 60.1 °F - - N/A% 30.01 in 10.0 mi ESE 5.8 mph - N/A   Clear
5:53 AM 59.0 °F - - N/A% 30.02 in 10.0 mi East 3.5 mph - N/A   Clear
6:12 AM 59.0 °F - - N/A% 30.13 in 10.0 mi Calm Calm - N/A   Scattered Clouds
6:31 AM 59.0 °F - - N/A% 30.13 in 10.0 mi ESE 3.5 mph - N/A   Mostly Cloudy
6:53 AM 59.0 °F - - N/A% 30.04 in 10.0 mi East 4.6 mph - N/A   Mostly Cloudy
7:15 AM 57.9 °F - - N/A% 30.14 in 10.0 mi East 4.6 mph - N/A   Scattered Clouds
7:53 AM 59.0 °F - - N/A% 30.05 in 10.0 mi SE 3.5 mph - N/A   Mostly Cloudy
8:53 AM 59.0 °F - - N/A% 30.08 in 10.0 mi Calm Calm - N/A   Overcast
9:53 AM 60.1 °F - - N/A% 30.11 in 10.0 mi SSE 3.5 mph - N/A   Overcast
10:53 AM 61.0 °F - - N/A% 30.12 in 10.0 mi ESE 3.5 mph - N/A   Overcast
11:45 AM 66.9 °F - - N/A% 30.20 in 10.0 mi Calm Calm - N/A   Scattered Clouds
11:53 AM 68.0 °F - - N/A% 30.11 in 10.0 mi Calm Calm - N/A   Partly Cloudy
12:53 PM 77.0 °F - 55.4 °F 47% 30.18 in 10.0 mi SW 6.9 mph - N/A   Clear
1:53 PM 81.0 °F 80.5 °F 54.0 °F 39% 30.05 in 10.0 mi WSW 6.9 mph - N/A   Clear
2:53 PM 82.9 °F - 51.1 °F 33% 30.01 in 10.0 mi SW 9.2 mph - N/A   Clear
3:53 PM 84.0 °F - 46.9 °F 27% 29.99 in 10.0 mi SW 8.1 mph - N/A   Clear
4:53 PM 84.9 °F - 48.0 °F 28% 29.99 in 10.0 mi SW 6.9 mph - N/A   Clear
5:53 PM 84.9 °F - 46.0 °F 26% 29.99 in 10.0 mi SSW 6.9 mph - N/A   Clear
6:53 PM 80.1 °F - 50.0 °F 35% 29.99 in 10.0 mi SSE 5.8 mph - N/A   Clear
7:53 PM 73.9 °F - 52.0 °F 46% 30.01 in 10.0 mi SE 6.9 mph - N/A   Clear
8:53 PM 71.1 °F - 52.0 °F 51% 30.03 in 10.0 mi ESE 6.9 mph - N/A   Clear
9:53 PM 70.0 °F - 51.1 °F 51% 30.04 in 10.0 mi ESE 6.9 mph - N/A   Clear
10:53 PM 71.1 °F - 50.0 °F 47% 30.05 in 10.0 mi SE 11.5 mph - N/A   Clear
11:53 PM 66.0 °F - 53.1 °F 63% 30.05 in 10.0 mi SE 8.1 mph - N/A   Clear